Content
SEND FEEDBACK

Daily
Averages
Monthly
Summary
United States of America

MARBLEHEAD, OHIO


Home > North America > United States > Ohio
Elevation: 630 feet     Latitude: 41 30N     Longitude: 082 42W

WEATHER
 
SELECT A DAY
Number of Records: 180,660;   Date Range: 10/8/98 - 9/20/14
 
SHARE

PRINT THIS DATA

[ ← Previous Day ]
WEATHER ALMANAC - APRIL 3, 2013
[ Next Day → ]
[ °C ]   °F
Weather ElementAverageHighLow
Temperature32.4 °F37.9 °F (4:53 pm)26.1 °F (6:53 am)
Dewpoint16 °F21.9 °F (10:53 am)12 °F (6:53 pm)
Humidity51.6 %66 % (7:53 am)37 % (5:53 pm)
Barometer30.38 in30.46 in (6:53 pm)30.26 in (1:53 am)
Wind Speed8.7 mph18.4 mph (11:53 am)
Wind Gust24.2 mph (12:53 pm)
Weather ElementAverage
Visibility10 mi
Wind DirectionSSW (212.1 °)

Weather ElementTotal
Precipitation---
Heating Degree Days33 (Base 65)
Averaged from 24 records on April 3, 2013
WEATHER CONDITIONS BREAKOUT
WIND DIRECTION BREAKOUT
WEATHER BY HOUR - APRIL 3, 2013
[ °C ]   °F
Local TimeTemperatureDewpointHumidityBarometerVisibilityWind DirectionWind SpeedGust SpeedPrecipitationEventsConditions
1:53 AM33.1 °F19.0 °F56 %30.26 in10.0 miNNW (340°)9.2 mphClear
2:53 AM32.0 °F17.1 °F54 %30.26 in10.0 miNorth (10°)12.7 mphClear
3:53 AM30.0 °F17.1 °F59 %30.27 in10.0 miNorth (10°)4.6 mphClear
4:53 AM30.0 °F14.0 °F51 %30.28 in10.0 miNorth (350°)5.8 mphClear
5:53 AM28.9 °F12.9 °F51 %30.30 in10.0 miNNW (340°)3.5 mphClear
6:53 AM26.1 °F12.9 °F58 %30.32 in10.0 miWNW (300°)3.5 mphClear
7:53 AM27.0 °F17.1 °F66 %30.33 in10.0 miWSW (250°)8.1 mphClear
8:53 AM30.9 °F19.9 °F64 %30.33 in10.0 miWNW (300°)10.4 mphClear
9:53 AM33.1 °F21.0 °F61 %30.37 in10.0 miNNW (330°)13.8 mphOvercast
10:53 AM34.0 °F21.9 °F61 %30.38 in10.0 miNorth (350°)17.3 mph21.9 mphMostly Cloudy
11:26 AM33.8 °F21.2 °F60 %30.38 in10.0 miNNW (340°)17.3 mphMostly Cloudy
11:53 AM34.0 °F19.9 °F56 %30.42 in10.0 miNorth (350°)18.4 mph21.9 mphPartly Cloudy
12:53 PM36.0 °F19.0 °F50 %30.43 in10.0 miNorth (350°)15.0 mph24.2 mphClear
1:53 PM36.0 °F15.1 °F43 %30.43 in10.0 miNNW (330°)15.0 mph21.9 mphScattered Clouds
2:53 PM36.0 °F15.1 °F43 %30.44 in10.0 miNNW (330°)9.2 mph18.4 mphScattered Clouds
3:53 PM37.0 °F15.1 °F41 %30.43 in10.0 miNorth (10°)11.5 mph19.6 mphClear
4:53 PM37.9 °F15.1 °F39 %30.44 in10.0 miNNE (30°)10.4 mphClear
5:53 PM37.0 °F12.9 °F37 %30.45 in10.0 miNNW (330°)9.2 mphClear
6:53 PM36.0 °F12.0 °F37 %30.46 in10.0 miCalmClear
7:53 PM34.0 °F12.0 °F40 %30.45 in10.0 miCalmClear
8:53 PM30.0 °F12.9 °F49 %30.43 in10.0 miESE (110°)5.8 mphClear
9:53 PM30.0 °F12.9 °F49 %30.41 in10.0 miSE (130°)4.6 mphClear
10:53 PM28.0 °F12.9 °F53 %30.41 in10.0 miCalmClear
11:53 PM26.1 °F14.0 °F60 %30.42 in10.0 miSSW (200°)3.5 mphClear
Hourly data recorded from KLPR, located miles away from Marblehead, Ohio







STORIES FROM OUR PARTNERS